Location: Bocchiglicro
(39.4167°N, 16.7500°E)
Time: 19:04:12
(UTC+00:00)

Cosmos 1933 - Pass Details

Date: 07 June 2020
Orbit: 546 x 564 km, 82.5° (Epoch: 06 July)

Event Time Altitude Azimuth Distance (km) Brightness Sun altitude
Rises 02:26:59 0° 350° (N) 2,737 7.3 -10.1°
Reaches altitude 10° 02:29:10 10° 349° (N) 1,835 6.4 -9.8°
Maximum altitude 02:33:11 75° 265° (W) 572 3.3 -9.2°
Drops below altitude 10° 02:37:10 10° 179° (S) 1,812 5.6 -8.6°
Sets 02:39:19 0° 178° (S) 2,699 6.5 -8.3°
